Location: Astronomy Club of Akron Observatory
(40.9700°N, 81.5606°W)
Time: 05:29:09
(UTC-04:00)

ATLAS 2AS CENTAUR R/B - Visible Passes

Search period start: 19 April 2015 00:00
Search period end: 29 April 2015 00:00
Orbit: 915 x 1298 km, 63.7° (Epoch: 30 March)

Date Brightness Start Highest point End Pass type
(mag) Time Alt. Az. Time Alt. Az. Time Alt. Az.
19 Apr 5.1 04:05:09 10° SE 04:07:54 13° ESE 04:11:16 10° ENE visible
19 Apr 3.2 05:50:32 10° SSW 05:57:41 73° ESE 06:05:32 10° NE visible
20 Apr 3.7 05:06:19 10° S 05:13:05 48° ESE 05:20:30 10° NE visible
21 Apr 4.3 04:22:57 11° SSE 04:28:37 30° ESE 04:35:11 10° NE visible
22 Apr 4.8 03:40:02 11° SE 03:44:16 18° ESE 03:49:19 10° ENE visible
22 Apr 3.0 05:27:30 12° SSW 05:34:19 89° WNW 05:42:15 10° NE visible
23 Apr 3.2 04:44:31 20° SSW 04:49:37 62° ESE 04:57:20 10° NE visible
24 Apr 3.8 04:01:28 24° SSE 04:05:04 40° ESE 04:12:13 10° NE visible
24 Apr 3.4 05:48:55 10° WSW 05:56:00 50° NW 06:03:40 10° NNE visible
25 Apr 4.3 03:18:21 21° SE 03:20:40 25° ESE 03:26:44 10° NE visible
25 Apr 3.0 05:05:48 21° SW 05:11:00 72° NW 05:18:56 10° NNE visible
26 Apr 4.8 02:35:10 14° ESE 02:36:21 15° ESE 02:40:23 10° ENE visible
26 Apr 2.9 04:22:37 34° SSW 04:26:12 79° ESE 04:34:06 10° NE visible
27 Apr 3.3 03:39:23 40° SSE 03:41:35 52° ESE 03:49:07 10° NE visible
27 Apr 3.7 05:26:50 14° WSW 05:32:52 41° NW 05:40:16 10° NNE visible
28 Apr 3.8 02:56:07 32° SE 02:57:05 33° ESE 03:03:52 10° NE visible
28 Apr 3.2 04:43:33 27° WSW 04:47:46 58° NW 04:55:35 10° NNE visible
